When you browse on this site, cookies collect data to enhance your experience and personalize the content and advertising you see.
Visit our Privacy Policy to learn more. By continuing to use the site, you agree to this use of cookies and data.
  • In Latvia
  • List of Countries
  • For 7 days
  • Water Temperature
  • Satellite Maps
  • Weather Map
  • Weather Widgets
  • user-avatar
    Login

    Hourly Weather Escaldes-Engordany

    Today, 23 May, Thursday

    Time Temperature Precipitation Wind Pressure Humidity
    00:00 +7°C° 0 mm 1 mps 638 mmHg 80%
    01:00 +7°C° 0 mm 1 mps 638 mmHg 79%
    02:00 +7°C° 0 mm 1 mps 638 mmHg 78%
    03:00 +6°C° 0 mm 1 mps 638 mmHg 77%
    04:00 +8°C° 0 mm 1 mps 638 mmHg 74%
    05:00 +9°C° 0 mm 1 mps 638 mmHg 71%
    06:00 +10°C° 0 mm 1 mps 639 mmHg 69%
    07:00 +13°C° 0 mm 1 mps 640 mmHg 60%
    08:00 +15°C° 0 mm 1 mps 641 mmHg 50%
    09:00 +19°C° 0 mm 1 mps 642 mmHg 41%
    10:00 +20°C° 0 mm 1 mps 642 mmHg 38%
    11:00 +21°C° 0 mm 1 mps 642 mmHg 36%
    12:00 +22°C° 0 mm 1 mps 642 mmHg 34%
    13:00 +20°C° 0.1 mm 1 mps 642 mmHg 42%
    14:00 +18°C° 0.1 mm 1 mps 641 mmHg 51%
    15:00 +16°C° 0.1 mm 1 mps 640 mmHg 60%
    16:00 +14°C° 0.7 mm 1 mps 639 mmHg 68%
    17:00 +13°C° 0.7 mm 1 mps 639 mmHg 77%
    18:00 +12°C° 0.7 mm 1 mps 638 mmHg 86%
    19:00 +12°C° 0.7 mm 1 mps 638 mmHg 88%
    20:00 +11°C° 0.7 mm 1 mps 638 mmHg 89%
    21:00 +11°C° 0.7 mm 1 mps 639 mmHg 91%
    22:00 +10°C° 1.8 mm 1 mps 638 mmHg 93%
    23:00 +9°C° 1.8 mm 0 mps 638 mmHg 94%

    Tomorrow, 24 May, Friday

    Time Temperature Precipitation Wind Pressure Humidity
    00:00 +9°C° 1.8 mm 0 mps 638 mmHg 96%
    01:00 +8°C° 2.7 mm 0 mps 638 mmHg 96%
    02:00 +9°C° 2.7 mm 1 mps 638 mmHg 96%
    03:00 +9°C° 2.7 mm 1 mps 637 mmHg 95%
    04:00 +9°C° 1.9 mm 1 mps 637 mmHg 95%
    05:00 +9°C° 1.9 mm 1 mps 637 mmHg 95%
    06:00 +9°C° 1.9 mm 1 mps 637 mmHg 95%
    07:00 +9°C° 1.5 mm 1 mps 637 mmHg 95%
    08:00 +9°C° 1.5 mm 1 mps 637 mmHg 95%
    09:00 +9°C° 1.5 mm 1 mps 638 mmHg 95%
    10:00 +9°C° 1.2 mm 1 mps 637 mmHg 94%
    11:00 +8°C° 1.2 mm 2 mps 637 mmHg 93%
    12:00 +8°C° 1.2 mm 2 mps 637 mmHg 92%
    13:00 +8°C° 0.7 mm 2 mps 637 mmHg 91%
    14:00 +8°C° 0.7 mm 2 mps 637 mmHg 89%
    15:00 +9°C° 0.7 mm 2 mps 637 mmHg 88%
    16:00 +8°C° 0.6 mm 2 mps 636 mmHg 89%
    17:00 +8°C° 0.6 mm 2 mps 636 mmHg 90%
    18:00 +8°C° 0.6 mm 2 mps 636 mmHg 91%
    19:00 +7°C° 0.9 mm 2 mps 636 mmHg 93%
    20:00 +7°C° 0.9 mm 2 mps 636 mmHg 94%
    21:00 +6°C° 0.9 mm 2 mps 636 mmHg 95%
    22:00 +6°C° 1.4 mm 2 mps 636 mmHg 96%
    23:00 +6°C° 1.4 mm 2 mps 636 mmHg 96%

    Day after tomorrow, 25 May, Saturday

    Time Temperature Precipitation Wind Pressure Humidity
    00:00 +6°C° 1.4 mm 2 mps 636 mmHg 96%
    01:00 +6°C° 1.7 mm 2 mps 636 mmHg 96%
    02:00 +6°C° 1.7 mm 2 mps 636 mmHg 96%
    03:00 +6°C° 1.7 mm 2 mps 636 mmHg 96%
    04:00 +6°C° 1.1 mm 2 mps 636 mmHg 96%
    05:00 +7°C° 1.1 mm 2 mps 636 mmHg 96%
    06:00 +7°C° 1.1 mm 3 mps 636 mmHg 95%
    07:00 +7°C° 0.9 mm 3 mps 637 mmHg 94%
    08:00 +7°C° 0.9 mm 3 mps 637 mmHg 93%
    09:00 +8°C° 0.9 mm 3 mps 637 mmHg 92%
    10:00 +8°C° 0.6 mm 3 mps 638 mmHg 90%
    11:00 +9°C° 0.6 mm 3 mps 638 mmHg 87%
    12:00 +9°C° 0.6 mm 2 mps 638 mmHg 84%
    13:00 +10°C° 0.4 mm 3 mps 638 mmHg 83%
    14:00 +10°C° 0.4 mm 3 mps 638 mmHg 82%
    15:00 +10°C° 0.4 mm 3 mps 638 mmHg 80%
    16:00 +10°C° 0.1 mm 3 mps 638 mmHg 82%
    17:00 +9°C° 0.1 mm 3 mps 638 mmHg 84%
    18:00 +9°C° 0.1 mm 3 mps 638 mmHg 86%
    19:00 +8°C° 0.2 mm 3 mps 638 mmHg 88%
    20:00 +8°C° 0.2 mm 3 mps 638 mmHg 90%
    21:00 +7°C° 0.2 mm 3 mps 639 mmHg 92%
    22:00 +7°C° 0.1 mm 3 mps 639 mmHg 92%
    23:00 +7°C° 0.1 mm 3 mps 638 mmHg 92%

    26 May, Sunday

    Time Temperature Precipitation Wind Pressure Humidity
    00:00 +7°C° 0.1 mm 3 mps 638 mmHg 92%
    01:00 +7°C° 0.1 mm 3 mps 638 mmHg 91%
    02:00 +7°C° 0.1 mm 3 mps 638 mmHg 91%
    03:00 +7°C° 0.1 mm 3 mps 638 mmHg 90%
    04:00 +7°C° 0 mm 3 mps 638 mmHg 89%
    05:00 +8°C° 0 mm 3 mps 638 mmHg 88%
    06:00 +8°C° 0 mm 3 mps 639 mmHg 88%
    07:00 +9°C° 0 mm 3 mps 639 mmHg 82%
    08:00 +10°C° 0 mm 3 mps 639 mmHg 77%
    09:00 +11°C° 0 mm 3 mps 640 mmHg 72%
    10:00 +12°C° 0 mm 3 mps 640 mmHg 68%
    11:00 +13°C° 0 mm 3 mps 640 mmHg 63%
    12:00 +14°C° 0 mm 3 mps 640 mmHg 59%
    13:00 +14°C° 0 mm 3 mps 640 mmHg 57%
    14:00 +16°C° 0 mm 3 mps 640 mmHg 55%
    15:00 +16°C° 0 mm 3 mps 640 mmHg 53%
    16:00 +14°C° 0 mm 3 mps 640 mmHg 58%
    17:00 +13°C° 0 mm 3 mps 639 mmHg 64%
    18:00 +12°C° 0 mm 3 mps 639 mmHg 69%
    19:00 +11°C° 0 mm 3 mps 639 mmHg 76%
    20:00 +9°C° 0 mm 3 mps 638 mmHg 82%
    21:00 +8°C° 0 mm 2 mps 638 mmHg 88%
    22:00 +8°C° 0 mm 2 mps 638 mmHg 88%
    23:00 +8°C° 0 mm 3 mps 638 mmHg 88%

    27 May, Monday

    Time Temperature Precipitation Wind Pressure Humidity
    00:00 +8°C° 0 mm 3 mps 638 mmHg 88%
    01:00 +7°C° 0 mm 2 mps 638 mmHg 89%
    02:00 +7°C° 0 mm 2 mps 637 mmHg 90%
    03:00 +6°C° 0 mm 2 mps 637 mmHg 90%
    04:00 +7°C° 0 mm 2 mps 637 mmHg 87%
    05:00 +7°C° 0 mm 2 mps 637 mmHg 84%
    06:00 +8°C° 0 mm 2 mps 637 mmHg 81%
    07:00 +10°C° 0 mm 2 mps 638 mmHg 71%
    08:00 +13°C° 0 mm 2 mps 639 mmHg 61%
    09:00 +15°C° 0 mm 2 mps 640 mmHg 51%
    10:00 +16°C° 0 mm 2 mps 640 mmHg 49%
    11:00 +17°C° 0 mm 2 mps 640 mmHg 47%
    12:00 +19°C° 0 mm 2 mps 640 mmHg 45%
    13:00 +18°C° 0 mm 2 mps 639 mmHg 48%
    14:00 +18°C° 0 mm 2 mps 639 mmHg 51%
    15:00 +17°C° 0 mm 2 mps 638 mmHg 54%
    16:00 +16°C° 0.1 mm 2 mps 638 mmHg 64%
    17:00 +14°C° 0.1 mm 2 mps 637 mmHg 74%
    18:00 +12°C° 0.1 mm 2 mps 637 mmHg 85%
    19:00 +10°C° 0.2 mm 2 mps 637 mmHg 87%
    20:00 +10°C° 0.2 mm 2 mps 637 mmHg 89%
    21:00 +9°C° 0.2 mm 2 mps 637 mmHg 91%
    22:00 +9°C° 0.1 mm 2 mps 637 mmHg 91%
    23:00 +8°C° 0.1 mm 2 mps 637 mmHg 91%

    28 May, Tuesday

    Time Temperature Precipitation Wind Pressure Humidity
    00:00 +8°C° 0.1 mm 2 mps 636 mmHg 92%
    01:00 +7°C° 0 mm 2 mps 636 mmHg 91%
    02:00 +7°C° 0 mm 2 mps 636 mmHg 91%
    03:00 +7°C° 0 mm 2 mps 636 mmHg 90%
    04:00 +6°C° 0 mm 2 mps 636 mmHg 87%
    05:00 +6°C° 0 mm 2 mps 636 mmHg 84%
    06:00 +6°C° 0 mm 2 mps 636 mmHg 81%
    07:00 +8°C° 0 mm 2 mps 637 mmHg 70%
    08:00 +10°C° 0 mm 2 mps 637 mmHg 59%
    09:00 +13°C° 0 mm 2 mps 638 mmHg 48%
    10:00 +14°C° 0 mm 2 mps 639 mmHg 45%
    11:00 +15°C° 0 mm 2 mps 639 mmHg 43%
    12:00 +16°C° 0 mm 2 mps 639 mmHg 40%
    13:00 +15°C° 0.3 mm 2 mps 639 mmHg 53%
    14:00 +13°C° 0.3 mm 2 mps 638 mmHg 66%
    15:00 +10°C° 0.3 mm 2 mps 637 mmHg 78%
    16:00 +9°C° 0.5 mm 2 mps 637 mmHg 80%
    17:00 +9°C° 0.5 mm 2 mps 637 mmHg 83%
    18:00 +8°C° 0.5 mm 2 mps 637 mmHg 85%
    19:00 +8°C° 0.2 mm 2 mps 637 mmHg 87%
    20:00 +7°C° 0.2 mm 2 mps 637 mmHg 89%
    21:00 +6°C° 0.2 mm 2 mps 637 mmHg 91%
    22:00 +5°C° 0 mm 2 mps 637 mmHg 91%
    23:00 +5°C° 0 mm 2 mps 637 mmHg 91%
    Show more